Temperature
26 27 27 27 27 27 27 27 28 28 29 29 29 27 26 24 23 22 21 20 20 19 18 18 18 17 17 17 17 17 17 16 16 16 16 16 16 16 16 16 16 16 15 15
25 26 26 26 27 27 27 27 27 28 28 29 28 26 25 24 23 22 21 20 19 19 18 18 18 17 17 17 17 17 16 16 16 16 16 16 16 16 16 16 16 15 15 15
24 26 25 25 26 27 27 28 27 27 28 28 27 26 24 23 23 22 21 20 19 18 18 17 17 17 17 17 17 16 16 16 16 16 16 16 16 16 15 15 15 15 15 15
23 23 22 26 27 27 26 27 28 28 28 27 26 24 22 22 22 21 20 19 19 18 17 17 17 17 16 16 16 16 16 16 16 16 16 16 15 15 15 15 15 15 14 14
22 23 23 25 26 25 25 25 27 26 26 25 23 22 21 20 20 19 19 18 17 17 17 17 17 16 16 16 16 15 15 15 15 15 15 15 15 15 14 14 14 14 13 13
21 21 22 24 25 24 24 24 25 24 24 23 22 24 22 18 17 17 17 16 16 16 16 16 15 15 15 15 15 15 15 14 14 14 14 14 14 14 14 14 13 13 13 12
20 20 22 23 23 23 22 23 21 22 22 22 22 22 18 16 15 15 15 15 15 15 15 15 15 15 15 14 14 14 14 14 14 13 13 13 13 13 13 12 12 12 12 11
20 20 21 22 22 21 21 19 19 20 20 19 18 16 15 14 14 14 14 14 14 14 14 14 14 14 14 13 13 13 13 13 13 12 12 12 12 12 12 11 11 11 10 10
20 20 20 19 19 19 18 18 18 19 18 17 16 15 14 13 13 13 13 13 13 13 13 12 13 13 13 12 12 12 12 12 12 12 11 11 11 11 11 10 10 10 10 9
18 19 19 19 18 18 18 17 18 17 17 16 15 14 13 12 12 12 12 12 12 12 12 12 12 12 12 12 12 12 12 11 11 11 10 10 10 10 10 10 10 9 9 9
17 18 18 18 17 17 16 16 16 15 15 15 14 13 12 12 11 11 11 11 11 11 11 11 11 11 11 11 11 11 11 10 10 10 10 9 9 9 9 9 8 8 8 7
16 16 16 16 15 15 15 15 14 14 13 13 13 12 11 11 10 10 10 10 11 10 10 10 10 10 10 10 10 10 10 10 10 9 9 9 9 8 8 8 7 7 7 6
14 14 14 14 14 14 13 13 13 12 12 11 11 10 10 10 10 10 10 10 10 10 10 10 10 10 10 10 10 10 9 9 9 9 9 9 8 8 7 7 6 6 6 5
13 13 13 13 13 12 12 12 11 11 10 10 10 9 9 9 9 9 9 9 9 9 9 9 9 9 9 9 9 9 9 9 9 8 8 8 8 7 7 7 6 5 5 4
12 12 12 12 12 11 11 11 10 10 9 9 9 9 9 9 9 9 9 9 9 9 9 9 9 8 8 8 8 8 8 8 8 8 8 7 7 7 7 6 6 5 5 4
12 12 12 11 11 11 11 10 10 9 9 9 8 8 8 8 8 8 8 9 9 9 8 8 8 8 8 8 8 8 8 7 7 7 7 7 6 6 6 5 5 5 4 4
12 12 12 11 11 11 10 10 10 9 9 9 8 8 8 8 8 8 8 8 8 8 8 8 8 8 8 7 7 7 7 7 6 7 6 6 6 5 5 5 4 4 4 3
12 11 11 11 11 10 10 10 10 9 9 9 9 9 9 8 8 8 8 8 8 8 8 8 7 7 7 7 7 7 7 6 6 6 5 5 5 5 4 4 4 3 3 3
11 11 11 11 11 11 10 10 10 9 9 9 9 9 8 8 8 8 8 8 8 8 7 7 7 7 7 6 6 6 6 6 5 5 5 4 4 4 4 4 3 3 3 2
11 11 11 11 11 10 10 10 10 9 9 9 9 9 8 8 8 8 8 8 7 7 7 7 6 6 6 6 6 6 6 5 5 5 4 4 4 3 3 3 3 2 2 2
11 11 11 10 10 10 10 10 10 9 9 9 9 9 8 8 8 8 8 7 7 7 6 6 6 6 6 5 5 5 5 5 4 4 4 4 3 3 3 2 2 2 1 1
10 10 10 10 10 10 10 10 10 9 9 9 9 9 8 8 8 7 7 7 7 6 6 6 6 5 5 5 5 5 4 4 4 4 3 3 3 2 2 2 1 1 1 1
10 10 10 10 10 10 9 9 9 9 9 9 8 8 8 8 8 7 7 6 6 6 6 5 5 5 4 4 4 4 4 3 3 3 3 3 2 2 2 1 1 1 0 0
10 10 10 10 10 9 9 9 9 8 8 8 8 8 8 7 7 7 6 6 6 5 5 5 4 4 4 4 4 3 3 3 3 3 2 2 2 2 1 1 1 1 0 -0
10 10 10 10 9 9 9 9 8 8 8 8 7 7 7 7 7 6 6 5 5 5 4 4 4 4 4 3 3 3 3 3 3 2 2 2 2 1 1 1 1 0 0 -0
9 9 9 9 9 9 9 9 9 8 8 8 7 7 7 6 6 6 5 5 4 4 4 4 3 3 3 3 3 3 3 2 2 2 2 2 1 1 1 1 0 0 -0 -1
9 9 9 9 9 9 9 8 8 8 8 7 7 6 6 6 6 5 5 5 4 4 4 4 4 3 3 3 3 3 2 2 2 2 2 1 1 1 1 0 0 -0 -0 -1
Wind_Speed
12 10 10 11 12 13 15 16 16 15 13 9 5 7 9 11 13 13 13 13 13 13 12 11 11 11 11 12 12 12 12 12 11 11 10 9 8 8 7 6 6 5 5 4
13 13 13 15 16 16 17 17 18 17 16 9 4 6 9 12 14 14 14 14 13 13 12 12 11 11 11 11 11 12 12 11 11 10 10 9 8 7 6 6 5 4 4 3
15 14 14 18 19 19 19 19 18 18 15 7 5 7 9 11 13 13 13 13 13 13 12 11 11 11 11 10 10 11 10 10 10 10 9 8 8 7 6 6 5 4 3 3
12 12 17 13 7 11 16 19 18 16 12 7 5 5 5 7 10 12 12 12 12 11 11 11 11 11 10 11 11 11 10 10 9 9 9 9 8 7 6 5 5 5 4 4
11 15 16 14 9 9 12 15 13 13 11 6 4 5 6 7 7 9 10 10 10 10 11 10 11 12 12 11 11 11 10 10 9 9 9 9 9 8 7 7 7 7 7 8
11 13 13 7 3 5 9 14 5 6 6 6 9 8 6 9 9 10 10 10 11 11 12 11 11 12 13 12 12 11 11 10 10 9 10 10 10 9 9 9 9 9 9 9
15 14 11 5 5 4 9 4 6 5 3 6 8 2 9 12 11 11 12 13 13 13 13 12 13 13 14 14 13 12 12 12 12 11 11 11 11 10 10 9 10 9 9 9
10 12 10 3 4 5 6 8 7 5 3 2 5 10 13 14 13 13 14 14 14 14 14 13 14 15 16 15 14 14 14 14 13 12 11 11 11 10 9 9 9 8 8 7
7 7 4 4 6 8 9 9 8 5 1 6 10 12 14 15 14 14 14 14 15 16 16 14 13 16 17 15 14 14 15 14 13 13 11 10 10 10 8 6 6 6 5 5
9 10 10 11 10 9 8 8 5 2 5 9 12 15 16 15 15 15 15 15 15 17 17 16 14 15 15 14 14 15 15 13 12 12 11 10 8 7 7 6 5 5 4 4
11 11 10 9 8 7 5 2 1 5 8 10 15 17 17 15 15 15 14 14 15 16 17 16 15 14 14 13 13 14 14 12 11 11 11 10 10 9 8 9 7 5 5 4
8 7 7 7 6 4 1 2 6 9 11 13 15 18 18 16 15 15 15 15 15 16 16 15 15 14 12 11 12 12 11 10 8 8 8 8 9 10 15 12 13 14 13 9
7 7 7 6 4 1 3 7 10 12 14 15 16 17 18 17 15 15 15 15 15 15 15 14 14 13 11 10 10 10 10 8 7 7 7 6 6 7 7 8 10 12 12 12
5 4 3 1 2 6 9 12 14 15 16 17 18 18 18 18 17 16 15 15 14 14 13 13 13 12 10 10 10 10 9 8 6 6 6 5 5 4 4 4 5 5 7 8
3 1 2 6 9 10 12 14 17 18 19 19 18 18 17 17 17 16 14 14 13 13 13 12 12 11 9 10 10 9 8 6 6 6 5 5 4 4 4 3 3 4 3 4
4 6 8 9 10 12 14 17 18 19 19 19 18 17 16 16 16 15 13 13 13 12 11 11 11 9 8 9 9 8 7 8 5 5 5 4 4 3 3 3 3 3 3 5
6 8 10 12 13 14 14 15 17 18 18 18 18 18 17 16 16 14 13 12 12 11 11 11 10 9 8 7 7 6 7 7 5 4 5 4 4 4 4 3 3 3 3 5
8 10 12 14 15 16 16 17 17 18 18 18 18 17 16 15 15 14 13 13 12 12 10 10 9 9 8 7 6 5 5 5 4 5 5 5 4 4 4 3 3 3 3 3
12 14 15 16 16 16 16 17 17 16 17 16 16 15 14 14 14 13 13 12 12 11 9 9 8 8 8 7 5 5 5 5 5 5 5 4 3 3 3 3 3 3 4 4
15 16 17 17 17 17 17 17 17 16 15 16 15 15 14 13 13 12 11 10 8 8 9 8 7 7 7 6 2 5 5 5 5 5 4 3 3 3 3 4 4 4 4 5
16 16 17 17 16 16 16 16 16 16 15 15 15 14 13 12 11 10 10 9 9 8 8 7 5 6 6 5 2 5 5 5 5 4 4 4 3 3 4 4 4 4 4 5
15 15 16 16 16 15 14 13 14 15 14 13 13 13 13 11 10 9 9 8 8 5 5 6 6 7 5 3 5 5 5 5 5 4 4 3 3 3 3 3 4 4 4 5
14 15 15 15 15 14 14 13 13 13 12 12 11 11 10 9 8 8 8 7 7 5 5 7 9 6 1 3 5 6 6 5 4 4 4 3 3 3 3 3 3 4 4 5
13 14 13 13 13 13 13 13 12 11 11 11 10 9 9 8 7 7 8 9 8 7 8 9 7 3 1 5 5 5 5 5 4 3 3 3 3 3 3 3 3 4 4 5
12 12 12 12 11 10 11 12 12 11 11 10 10 9 7 7 8 8 9 10 9 8 9 8 5 2 3 6 5 5 4 4 4 3 3 3 2 2 2 3 3 4 4 5
11 10 9 9 9 8 8 8 8 8 8 8 8 7 8 8 9 9 8 10 10 8 8 7 7 5 5 5 5 4 4 4 3 2 3 2 2 2 2 3 4 4 4 5
10 9 8 8 8 7 7 7 7 7 7 7 8 7 8 8 8 8 9 8 8 7 7 6 5 5 4 4 4 3 3 2 2 2 1 1 1 2 2 3 3 4 5 5
Wind_Direction
267 278 271 261 252 240 239 251 261 269 271 272 240 211 189 175 169 167 166 168 168 168 169 171 171 172 174 176 173 172 171 171 174 173 171 174 175 180 182 187 194 196 203 212
260 260 262 261 256 251 248 251 256 264 267 272 248 199 185 181 177 174 172 170 168 168 168 170 170 169 170 172 171 170 171 171 167 164 165 167 168 171 173 178 184 180 186 185
260 259 262 254 250 251 250 249 251 256 261 242 223 201 191 184 182 179 174 170 167 166 165 164 164 163 163 162 159 159 160 158 156 158 157 158 161 161 160 156 147 142 141 131
261 258 252 258 270 266 263 260 257 259 264 251 235 197 183 183 181 175 168 164 161 158 154 154 153 152 150 149 148 146 145 146 147 147 147 144 140 137 132 127 124 120 114 106
253 252 256 259 260 265 266 264 262 260 254 227 170 163 172 166 167 162 156 148 144 144 144 144 144 141 138 138 138 136 137 138 138 138 135 130 126 122 118 113 106 99 91 87
244 252 256 263 303 299 274 259 284 281 251 210 191 217 179 144 140 134 132 131 130 130 129 128 132 134 132 131 129 127 126 123 123 123 122 119 116 113 109 107 104 98 89 81
245 249 255 288 324 281 248 277 5 336 278 223 218 256 126 130 126 123 121 121 121 119 117 118 122 123 120 115 113 113 111 109 107 106 108 108 105 104 105 104 100 95 92 85
240 245 248 355 301 271 314 338 333 325 296 198 119 115 123 123 122 121 119 117 114 110 106 108 113 112 107 104 105 106 104 101 100 100 102 103 102 99 99 104 106 101 96 88
250 258 319 334 305 304 306 304 307 302 180 140 135 132 126 123 120 117 114 111 110 108 103 100 103 107 107 108 109 107 104 101 100 98 96 99 102 103 101 99 97 96 93 88
261 264 279 288 290 289 289 289 289 218 158 145 139 133 127 121 117 114 111 109 109 108 104 99 97 99 103 108 110 108 105 103 103 101 98 91 88 89 87 84 86 88 81 77
259 271 283 285 296 298 297 298 119 131 139 140 136 131 124 118 114 111 108 106 105 104 103 102 100 98 101 106 108 107 106 106 104 100 97 90 78 61 71 63 58 57 64 59
272 291 291 300 319 323 334 116 115 115 115 119 124 124 119 113 110 108 107 105 104 104 103 103 101 99 99 103 106 108 108 107 107 107 106 106 103 89 60 69 72 65 52 48
280 291 292 293 314 360 101 108 111 112 114 114 113 113 112 109 106 105 103 103 104 105 105 104 103 100 98 98 99 99 102 103 106 107 111 112 112 113 112 97 87 81 74 65
293 286 277 264 113 104 108 109 110 108 108 109 110 110 110 109 108 106 106 107 107 105 104 104 102 98 99 101 101 101 101 98 101 103 104 104 104 105 106 111 117 105 100 99
328 316 130 110 106 108 112 114 112 111 111 111 113 113 113 113 112 112 113 113 112 110 109 108 104 102 103 105 103 101 100 102 99 100 101 99 99 96 89 83 77 80 92 118
84 100 110 109 109 112 116 117 116 116 117 117 116 115 115 114 115 116 117 118 115 111 110 109 105 104 104 104 104 102 93 78 87 103 103 100 92 82 76 71 66 60 45 29
115 113 112 112 111 111 114 118 119 120 120 119 119 119 118 117 115 114 114 112 110 109 108 105 103 102 103 105 107 106 105 106 108 100 91 86 83 77 70 61 55 45 47 50
106 110 110 113 115 114 115 116 117 119 120 122 124 124 123 122 120 119 120 117 110 102 97 100 104 105 101 98 94 97 105 107 103 95 92 84 82 79 71 66 54 32 27 73
110 111 111 111 113 114 116 117 117 118 121 123 123 122 123 123 123 123 123 119 115 110 105 104 106 109 103 93 94 106 103 102 99 94 95 99 93 80 70 59 46 34 21 13
108 108 108 108 109 111 114 117 118 119 121 122 121 121 119 120 122 121 118 110 104 107 114 115 117 108 107 99 82 104 100 99 102 105 102 94 81 73 62 53 44 31 20 11
108 107 107 107 107 108 112 115 117 118 121 122 122 121 121 122 124 125 122 113 105 107 113 117 112 108 106 108 126 103 103 100 100 95 92 86 75 63 53 45 37 26 18 8
107 107 106 106 106 105 108 113 117 120 122 123 123 124 125 127 125 117 108 111 119 127 130 117 104 88 87 120 109 102 101 100 97 93 85 76 68 59 52 42 32 23 15 7
107 107 107 107 108 109 111 114 116 118 120 123 126 129 128 126 129 128 123 119 126 129 116 102 101 104 114 119 102 102 100 96 90 88 85 77 67 58 49 39 31 18 10 3
111 111 111 111 112 110 109 109 111 113 115 116 118 120 123 123 119 112 112 111 108 117 109 105 111 123 210 110 103 101 99 98 95 89 84 78 72 61 46 28 17 12 8 1
111 113 114 116 114 111 111 113 114 116 117 114 116 118 118 115 117 117 118 123 128 126 117 121 138 193 141 105 106 103 102 88 74 66 77 68 57 48 30 17 9 0 359 357
111 108 104 103 105 112 117 116 116 118 119 117 112 110 110 112 116 120 123 127 127 125 126 133 139 163 122 114 111 109 105 111 110 93 68 56 43 28 18 8 359 352 350 351
112 110 110 108 107 105 108 111 113 114 114 117 115 113 114 117 120 123 126 131 135 133 128 129 130 129 122 118 114 112 110 108 97 79 75 50 19 2 359 346 341 341 335 339
Height
1451 1448 1448 1449 1449 1450 1453 1450 1451 1445 1442 1439 1441 1446 1451 1456 1460 1464 1468 1472 1475 1479 1482 1485 1489 1492 1495 1498 1501 1504 1507 1510 1513 1517 1520 1523 1526 1529 1532 1534 1537 1538 1540 1541
1456 1450 1449 1451 1448 1447 1447 1446 1445 1443 1441 1436 1442 1446 1451 1455 1458 1462 1466 1469 1473 1476 1480 1483 1486 1490 1493 1496 1499 1502 1505 1509 1512 1515 1518 1521 1524 1527 1529 1531 1533 1535 1537 1538
1457 1448 1451 1454 1444 1442 1441 1438 1440 1441 1436 1436 1441 1445 1449 1452 1456 1460 1463 1467 1471 1474 1477 1481 1484 1487 1491 1494 1497 1501 1504 1507 1510 1513 1516 1519 1522 1524 1527 1529 1530 1532 1533 1534
1458 1457 1465 1443 1433 1435 1437 1434 1433 1433 1435 1438 1442 1446 1450 1453 1455 1459 1462 1466 1469 1473 1476 1479 1483 1486 1489 1493 1496 1499 1502 1506 1509 1512 1515 1517 1520 1522 1524 1526 1528 1529 1531 1532
1458 1457 1450 1440 1436 1438 1439 1436 1432 1433 1435 1440 1445 1448 1450 1453 1456 1459 1462 1465 1468 1471 1475 1478 1482 1485 1488 1492 1495 1498 1502 1505 1508 1511 1514 1516 1518 1520 1522 1524 1526 1527 1529 1529
1458 1462 1458 1441 1436 1439 1441 1439 1435 1436 1437 1440 1444 1443 1446 1453 1456 1459 1461 1464 1467 1471 1474 1477 1481 1484 1488 1491 1495 1498 1501 1504 1508 1510 1513 1515 1517 1519 1521 1523 1524 1526 1527 1528
1457 1457 1446 1438 1439 1441 1447 1440 1440 1440 1440 1441 1442 1442 1448 1452 1456 1459 1462 1465 1468 1471 1475 1478 1481 1485 1488 1492 1495 1498 1501 1505 1507 1510 1513 1515 1517 1519 1521 1523 1524 1525 1526 1527
1454 1456 1449 1440 1441 1442 1443 1443 1442 1442 1442 1443 1445 1448 1450 1453 1457 1460 1463 1467 1469 1472 1476 1480 1483 1486 1489 1492 1496 1500 1503 1506 1508 1511 1514 1516 1518 1519 1521 1523 1524 1525 1526 1527
1448 1446 1443 1444 1445 1446 1446 1444 1443 1442 1443 1444 1447 1450 1453 1456 1459 1463 1466 1469 1472 1475 1478 1483 1486 1489 1491 1495 1499 1502 1505 1508 1510 1513 1515 1517 1519 1521 1522 1524 1525 1526 1527 1527
1448 1443 1443 1443 1443 1443 1443 1443 1442 1442 1443 1445 1448 1451 1455 1458 1462 1465 1469 1472 1475 1478 1481 1485 1490 1492 1495 1499 1502 1505 1507 1510 1513 1515 1517 1519 1521 1523 1524 1525 1526 1527 1527 1528
1445 1443 1442 1442 1442 1442 1441 1441 1440 1441 1443 1445 1448 1452 1456 1460 1464 1468 1473 1476 1479 1483 1486 1489 1493 1496 1500 1503 1506 1508 1510 1513 1516 1517 1519 1520 1522 1523 1525 1525 1526 1527 1527 1528
1444 1443 1444 1443 1442 1442 1441 1441 1441 1442 1445 1448 1450 1454 1458 1463 1468 1472 1477 1480 1484 1488 1491 1494 1498 1501 1505 1507 1510 1511 1513 1516 1518 1520 1521 1522 1523 1524 1524 1525 1526 1526 1526 1526
1445 1443 1443 1442 1442 1441 1441 1442 1443 1445 1447 1450 1454 1458 1461 1466 1471 1476 1481 1485 1489 1492 1496 1499 1502 1505 1508 1510 1512 1514 1515 1518 1520 1522 1523 1524 1525 1526 1526 1526 1526 1526 1525 1525
1443 1442 1441 1440 1441 1441 1442 1443 1445 1448 1452 1455 1458 1463 1467 1471 1476 1481 1486 1490 1494 1498 1501 1504 1506 1508 1511 1513 1514 1516 1518 1520 1522 1523 1524 1525 1526 1527 1527 1528 1527 1526 1525 1524
1441 1440 1440 1440 1441 1443 1444 1446 1449 1453 1456 1461 1465 1469 1473 1476 1481 1486 1491 1495 1499 1502 1505 1508 1509 1512 1514 1515 1517 1518 1520 1521 1522 1523 1524 1525 1526 1527 1527 1528 1527 1527 1526 1525
1442 1441 1441 1442 1444 1446 1448 1450 1453 1458 1462 1466 1471 1475 1479 1483 1487 1492 1497 1501 1504 1506 1509 1510 1512 1514 1516 1517 1519 1520 1521 1521 1523 1524 1525 1526 1527 1527 1527 1527 1527 1527 1526 1525
1444 1444 1444 1446 1448 1450 1453 1456 1459 1463 1468 1472 1476 1481 1485 1489 1493 1497 1501 1505 1507 1509 1512 1513 1515 1517 1518 1519 1521 1522 1523 1523 1523 1525 1526 1526 1527 1527 1527 1527 1527 1527 1526 1524
1446 1448 1449 1450 1452 1455 1458 1462 1465 1469 1473 1477 1482 1487 1491 1495 1498 1501 1505 1507 1510 1512 1514 1516 1517 1519 1520 1520 1521 1523 1524 1524 1525 1526 1526 1526 1527 1527 1527 1527 1526 1526 1525 1524
1450 1452 1454 1456 1459 1461 1464 1468 1471 1475 1479 1484 1488 1492 1495 1499 1502 1505 1508 1510 1512 1514 1516 1518 1519 1520 1521 1521 1522 1523 1524 1525 1525 1526 1526 1526 1527 1527 1527 1527 1526 1525 1524 1523
1455 1458 1460 1462 1465 1467 1470 1474 1477 1481 1485 1488 1492 1496 1499 1502 1505 1508 1510 1513 1515 1516 1518 1519 1520 1521 1522 1522 1523 1524 1525 1526 1526 1526 1527 1527 1527 1527 1527 1526 1526 1525 1524 1522
1461 1463 1465 1468 1471 1474 1476 1479 1482 1486 1490 1493 1496 1499 1502 1505 1508 1511 1513 1514 1516 1518 1519 1520 1521 1522 1523 1523 1524 1525 1525 1526 1526 1527 1527 1527 1527 1527 1527 1526 1525 1524 1523 1522
1466 1469 1471 1474 1476 1479 1482 1485 1488 1491 1494 1497 1500 1503 1505 1508 1511 1513 1514 1516 1517 1519 1521 1522 1522 1522 1523 1524 1525 1525 1526 1526 1527 1527 1527 1527 1527 1527 1526 1526 1525 1524 1522 1521
1472 1474 1477 1480 1482 1484 1487 1490 1493 1495 1498 1500 1503 1506 1508 1510 1512 1514 1516 1518 1519 1520 1521 1522 1522 1522 1523 1524 1525 1526 1526 1527 1527 1527 1527 1527 1527 1527 1526 1525 1524 1523 1522 1520
1477 1480 1482 1485 1487 1489 1491 1494 1497 1499 1501 1503 1506 1508 1510 1512 1514 1515 1516 1518 1519 1520 1521 1521 1522 1523 1524 1526 1526 1526 1527 1527 1528 1528 1528 1527 1527 1527 1526 1525 1524 1522 1521 1519
1482 1484 1487 1489 1491 1493 1495 1497 1499 1502 1504 1506 1508 1510 1512 1513 1515 1516 1517 1518 1519 1521 1522 1522 1523 1524 1526 1526 1527 1527 1528 1528 1528 1528 1528 1527 1527 1526 1525 1524 1523 1522 1520 1518
1486 1488 1491 1492 1494 1496 1498 1500 1502 1504 1506 1508 1510 1511 1513 1514 1515 1517 1518 1519 1520 1522 1523 1524 1524 1525 1527 1527 1527 1528 1528 1528 1528 1528 1528 1527 1527 1526 1524 1523 1522 1520 1518 1516
1490 1492 1494 1496 1498 1499 1501 1502 1504 1506 1507 1509 1511 1512 1513 1515 1517 1518 1519 1521 1522 1523 1524 1525 1526 1527 1527 1528 1528 1528 1529 1529 1528 1528 1527 1527 1526 1525 1523 1522 1521 1519 1517 1515